AB1IG Weather Reports


time (UTC)temp
C
wind
direction
speed
KPH
gust
KPH
rain 1hr
cm
rain 24hr
cm
rain mn
cm
humidity
%
barometer
mb
20260510011506 25 132 1.6 8.0 0.00 0.03 0.03 45 1003.9
20260510010005 25 172 0.0 6.4 0.00 0.03 0.03 43 1003.9
20260510004505 26 153 3.2 11.3 0.00 0.03 0.03 41 1004.0
20260510003004 26 169 1.6 16.1 0.00 0.03 0.03 42 1004.1
20260510001503 26 170 0.0 6.4 0.00 0.03 0.03 42 1003.8
20260510000002 27 283 1.6 11.3 0.00 0.03 0.03 40 1004.0
20260509234608 28 226 1.6 14.5 0.00 0.05 0.03 38 1003.9
20260509233059 30 20 1.6 9.7 0.00 0.05 0.03 36 1004.1
20260509231558 30 91 3.2 11.3 0.00 0.05 0.03 35 1004.2
20260509230059 30 140 0.0 16.1 0.00 0.05 0.03 35 1004.2
20260509224554 30 162 1.6 11.3 0.00 0.46 0.03 34 1004.5
20260509223052 30 148 3.2 11.3 0.00 0.46 0.03 33 1004.7
20260509221606 31 150 1.6 6.4 0.00 0.46 0.03 32 1004.9
20260509220100 30 128 3.2 11.3 0.00 0.46 0.03 34 1005.0
20260509214549 30 131 3.2 11.3 0.00 0.46 0.03 32 1004.9
20260509213048 31 228 1.6 12.9 0.00 0.46 0.03 33 1005.0
20260509211547 31 293 1.6 8.0 0.00 0.46 0.03 34 1005.2
20260509210054 31 342 1.6 8.0 0.00 0.46 0.03 33 1005.3
20260509204543 31 219 1.6 8.0 0.00 0.46 0.03 34 1005.5
20260509203045 31 44 0.0 6.4 0.00 0.46 0.03 35 1005.5
20260509201540 31 251 1.6 8.0 0.00 0.46 0.03 33 1005.7
20260509200042 31 163 1.6 6.4 0.00 0.46 0.03 32 1006.1
20260509194534 30 219 0.0 8.0 0.00 0.46 0.03 35 1006.2
20260509193034 30 309 0.0 6.4 0.00 0.46 0.03 34 1006.4
20260509191531 30 114 0.0 3.2 0.00 0.46 0.03 36 1006.4
20260509190041 29 291 1.6 11.3 0.00 0.46 0.03 33 1006.8
20260509184533 30 255 1.6 6.4 0.00 0.46 0.03 34 1007.0
20260509183029 29 139 0.0 6.4 0.00 0.46 0.03 40 1007.1
20260509181522 28 107 1.6 3.2 0.00 0.46 0.03 40 1007.2
20260509180021 28 333 1.6 8.0 0.00 0.46 0.03 42 1007.5
20260509174524 28 212 1.6 8.0 0.00 0.46 0.03 45 1007.8
20260509173018 27 43 0.0 4.8 0.00 0.46 0.03 41 1008.0
20260509171515 28 207 3.2 9.7 0.00 0.46 0.03 42 1008.2
20260509170025 27 155 0.0 6.4 0.00 0.46 0.03 46 1008.3
20260509164510 27 134 0.0 6.4 0.00 0.46 0.03 47 1008.6
20260509163006 26 170 0.0 4.8 0.00 0.46 0.03 52 1008.5
20260509161504 25 139 1.6 8.0 0.00 0.46 0.03 51 1008.5
20260509160002 25 198 0.0 4.8 0.00 0.46 0.03 55 1008.6
20260509154559 23 119 0.0 8.0 0.00 0.46 0.03 62 1008.5
20260509153053 23 254 1.6 4.8 0.00 0.46 0.03 65 1008.3
20260509151550 22 174 0.0 1.6 0.00 0.46 0.03 70 1008.5
20260509150046 20 46 0.0 4.8 0.00 0.46 0.03 80 1008.3
20260509144546 19 37 0.0 4.8 0.00 0.46 0.03 85 1008.2
20260509143036 18 61 0.0 4.8 0.00 0.46 0.03 86 1008.3
20260509141536 17 38 0.0 3.2 0.00 0.46 0.03 92 1008.3
20260509140034 17 39 0.0 0.0 0.00 0.46 0.03 95 1008.4
20260509134530 16 38 0.0 0.0 0.00 0.46 0.03 96 1008.3
20260509133030 15 38 0.0 0.0 0.00 0.46 0.03 96 1008.2
20260509131522 15 38 0.0 1.6 0.00 0.46 0.03 96 1008.0
20260509130040 15 38 0.0 0.0 0.00 0.46 0.03 96 1007.8
20260509124529 14 39 0.0 0.0 0.00 0.46 0.03 96 1007.8
20260509123026 14 39 0.0 0.0 0.00 0.46 0.03 95 1007.7
20260509121523 13 39 0.0 0.0 0.00 0.46 0.03 96 1007.5
20260509120021 12 38 0.0 0.0 0.00 0.46 0.03 96 1007.5
20260509114519 12 38 0.0 0.0 0.00 0.46 0.03 96 1007.2
20260509113017 12 38 0.0 0.0 0.00 0.46 0.03 95 1007.0
20260509111516 12 38 0.0 0.0 0.00 0.46 0.03 96 1006.9
20260509110022 12 39 0.0 0.0 0.00 0.46 0.03 95 1006.7
20260509104515 12 39 0.0 0.0 0.00 0.46 0.03 95 1006.7
20260509103013 12 38 0.0 0.0 0.00 0.46 0.03 94 1006.7
20260509101518 13 39 0.0 0.0 0.00 0.46 0.03 95 1006.9
20260509100008 13 38 0.0 0.0 0.03 0.46 0.03 95 1007.2
20260509094507 13 39 0.0 0.0 0.03 0.46 0.03 95 1007.4
20260509093017 13 39 0.0 0.0 0.03 0.46 0.03 94 1007.4
20260509091508 13 39 0.0 0.0 0.03 0.46 0.03 94 1007.3
20260509090004 13 38 0.0 0.0 0.00 0.43 0.00 95 1007.3
20260509084510 13 38 0.0 1.6 0.00 0.43 0.00 95 1007.3
20260509083002 13 38 0.0 0.0 0.00 0.43 0.00 94 1007.2
20260509081601 13 39 0.0 0.0 0.00 0.43 0.00 94 1007.2
20260509081501 13 39 0.0 0.0 0.00 0.43 0.00 94 1007.2
20260509080059 13 39 0.0 0.0 0.00 0.43 0.00 93 1007.5
20260509074601 13 38 0.0 0.0 0.00 0.43 0.00 93 1007.5
20260509073053 14 38 0.0 0.0 0.00 0.43 0.00 93 1007.8
20260509071551 14 38 0.0 0.0 0.00 0.43 0.00 93 1007.8
20260509070055 15 38 0.0 0.0 0.00 0.43 0.00 93 1007.8
20260509064549 15 38 0.0 1.6 0.00 0.43 0.00 93 1007.9
20260509063045 15 38 0.0 0.0 0.00 0.43 0.00 92 1007.8
20260509061545 15 38 0.0 0.0 0.00 0.43 0.00 92 1008.1
20260509060042 15 38 0.0 0.0 0.00 0.43 0.00 91 1008.0
20260509054552 15 39 0.0 0.0 0.00 0.43 0.00 91 1007.9
20260509053131 16 39 0.0 0.0 0.00 0.43 0.00 90 1007.9
20260509051545 16 38 0.0 1.6 0.00 0.43 0.00 89 1007.9
20260509050043 16 23 0.0 6.4 0.00 0.43 0.00 89 1007.9
20260509044533 16 31 0.0 0.0 0.00 0.43 0.43 89 1007.9
20260509043033 16 37 3.2 8.0 0.00 0.43 0.43 90 1007.9
20260509041532 16 49 1.6 4.8 0.00 0.43 0.43 91 1007.7
20260509040031 16 200 1.6 8.0 0.00 0.43 0.43 91 1007.6
20260509034531 16 207 0.0 0.0 0.00 0.43 0.43 90 1007.1
20260509033029 16 206 0.0 1.6 0.00 0.43 0.43 89 1007.0
20260509031528 16 207 0.0 0.0 0.00 0.43 0.43 88 1006.5
20260509030033 17 207 0.0 0.0 0.00 0.43 0.43 87 1006.1
20260509024528 17 206 0.0 0.0 0.00 0.43 0.43 86 1005.7
20260509023030 17 207 0.0 4.8 0.00 0.43 0.43 85 1005.5
20260509021526 17 207 0.0 3.2 0.00 0.43 0.43 85 1005.4
20260509020025 17 321 0.0 4.8 0.00 0.43 0.43 86 1005.2
20260509014526 17 211 0.0 1.6 0.00 0.43 0.43 86 1005.0
20260509013027 18 211 0.0 0.0 0.00 0.43 0.43 83 1004.4